Weather reports worldwide

Advertisment
Angermünde, Germany (10291): temperature & dewpoint: 18.06.2018 16:00:00 - 24.06.2018 16:00:00 (CEST)Angermünde, Germany (10291): temperature 5cm & temperature -5cm: 18.06.2018 16:00:00 - 24.06.2018 16:00:00 (CEST)Angermünde, Germany (10291): temperature -20cm & temperature -100cm: 18.06.2018 16:00:00 - 24.06.2018 16:00:00 (CEST)Angermünde, Germany (10291): wind speed & gusts: 18.06.2018 16:00:00 - 24.06.2018 16:00:00 (CEST)Angermünde, Germany (10291): wind direction: 18.06.2018 16:00:00 - 24.06.2018 16:00:00 (CEST)Angermünde, Germany (10291): reduced air pressure: 18.06.2018 16:00:00 - 24.06.2018 16:00:00 (CEST)Angermünde, Germany (10291): visibility: 18.06.2018 16:00:00 - 24.06.2018 16:00:00 (CEST)Angermünde, Germany (10291): sunshine duration: 18.06.2018 16:00:00 - 24.06.2018 16:00:00 (CEST)Angermünde, Germany (10291): precipitation: 18.06.2018 16:00:00 - 24.06.2018 16:00:00 (CEST)
Date & Time tt [°C] td [°C] tt 5cm [°C] tt -5cm [°C] tt -20cm [°C] tt -100cm [°C] ff [km/h] ff [kn] fx [km/h] fx [kn] dd ppp [hPa] vv [km] sd [min] rr [mm]
24.06.2018 16:00:00 15,4 13,0 15,9 20,2 18,7 18,1 19 10 34 19 W 1017,3 14 4 0,0
24.06.2018 15:00:00 17,2 12,7 19,6 20,4 18,5 18,2 19 11 32 18 W 1017,4 2,3 5 0,0
24.06.2018 14:00:00 16,5 11,8 18,9 20,5 18,2 18,2 21 11 34 18 WNW 1017,4 3,6 3 0,0
24.06.2018 13:00:00 16,5 12,9 18,8 20,7 17,8 18,2 20 11 31 17 WNW 1017,3 50 24 0,0
24.06.2018 12:00:00 14,4 13,5 16,5 18,5 17,6 18,2 16 9 25 14 WNW 1017,7 9 0 0,3
24.06.2018 11:00:00 13,1 12,2 14,2 17,3 17,6 18,2 13 7 21 12 NW 1017,8 5 0 2,0
24.06.2018 10:00:00 12,9 12,3 13,4 16,7 17,5 18,2 6 4 19 10 NNW 1017,6 5 0 1,2
24.06.2018 09:00:00 13,1 11,5 13,8 16,7 17,5 18,2 21 11 27 14 WNW 1017,4 10 0 0,0
24.06.2018 08:00:00 13,6 10,5 14,9 16,1 17,5 18,2 16 9 25 13 W 1017,2 50 0 0,0
24.06.2018 07:00:00 13,2 10,5 14,0 15,6 17,6 18,2 18 10 25 14 W 1017,2 50 5 0,0
24.06.2018 06:00:00 12,7 11,1 12,7 15,4 17,7 18,3 16 9 22 12 W 1017,2 50 0 0,0
24.06.2018 05:00:00 12,7 11,3 12,5 15,5 17,9 18,3 13 7 21 12 W 1017,1 48 0 0,0
24.06.2018 04:00:00 12,9 11,3 12,7 15,6 18,1 18,3 14 7 24 13 W 1017,4 56 0 0,0
24.06.2018 03:00:00 12,8 11,4 12,5 15,7 18,3 18,3 12 7 22 12 W 1017,5 50 0 0,0
24.06.2018 02:00:00 12,6 11,3 12,2 15,8 18,6 18,3 16 9 26 14 W 1017,8 58 0 0,0
24.06.2018 01:00:00 12,4 11,2 11,7 16,4 18,9 18,3 17 9 29 15 W 1018,1 48 0 0,0
24.06.2018 00:00:00 13,2 11,0 13,2 17,1 19,2 18,4 19 10 29 15 W 1018,1 66 0 0,0
23.06.2018 23:00:00 13,6 10,3 13,5 17,7 19,5 18,4 16 9 33 18 W 1018,1 68 0 0,0
23.06.2018 22:00:00 14,8 9,2 14,6 18,4 19,7 18,4 18 10 27 14 W 1017,8 70 0 0,0
23.06.2018 21:00:00 15,2 9,0 15,2 19,2 20,0 18,4 18 10 32 18 WNW 1017,5 70 0 0,0
23.06.2018 20:00:00 15,8 9,2 16,1 20,2 20,1 18,4 17 9 26 14 W 1017,4 57 0 0,0
23.06.2018 19:00:00 16,2 9,0 17,0 21,4 20,2 18,5 20 11 39 21 WNW 1017,5 56 0 0,0
23.06.2018 18:00:00 16,9 7,8 18,2 22,6 20,1 18,5 32 17 51 28 WNW 1017,5 29 20 0,0
23.06.2018 17:00:00 19,2 6,5 22,4 23,7 19,8 18,5 38 20 51 28 NW 1017,1 27 39 0,0
23.06.2018 16:00:00 18,1 7,4 20,5 23,9 19,5 18,5 32 17 51 28 WNW 1017,1 46 26 0,0
23.06.2018 15:00:00 19,8 7,2 25,7 23,6 19,0 18,5 23 12 46 25 WNW 1016,8 23 26 0,0
23.06.2018 14:00:00 19,0 8,0 22,1 23,9 18,3 18,6 29 16 41 22 WNW 1017,1 24 40 0,0
23.06.2018 13:00:00 19,7 8,6 25,8 22,6 17,6 18,6 25 13 40 21 NW 1016,9 20 45 0,0
23.06.2018 12:00:00 17,5 8,5 21,8 20,3 17,0 18,6 27 15 39 21 WNW 1017,2 30 31 0,0
23.06.2018 11:00:00 15,2 8,7 17,6 17,8 16,7 18,6 21 12 38 20 W 1017,4 30 12 0,0
23.06.2018 10:00:00 13,5 8,4 15,0 16,0 16,6 18,6 25 13 39 21 W 1017,7 30 7 0,0
23.06.2018 09:00:00 12,4 7,9 13,6 14,3 16,6 18,6 22 12 35 19 W 1017,5 30 3 0,0
23.06.2018 08:00:00 11,5 7,5 11,5 13,8 16,7 18,7 22 12 38 21 W 1017,6 40 0 0,0
23.06.2018 07:00:00 11,9 6,4 11,8 13,8 16,9 18,7 21 12 39 21 W 1017,3 40 0 0,0
23.06.2018 06:00:00 11,8 6,1 11,6 13,8 17,0 18,7 24 13 39 21 W 1017,4 40 0 0,0
23.06.2018 05:00:00 12,1 6,4 11,7 13,9 17,2 18,7 28 15 48 26 W 1017,4 38 0 0,0
23.06.2018 04:00:00 12,0 7,5 11,6 14,1 17,4 18,7 27 14 43 23 W 1017,3 40 0 0,0
23.06.2018 03:00:00 12,4 8,6 12,0 14,5 17,6 18,8 24 13 44 24 W 1017,4 58 0 0,0
23.06.2018 02:00:00 13,1 8,7 12,6 14,7 17,8 18,8 26 14 40 22 W 1017,4 59 0 0,0
23.06.2018 01:00:00 13,8 7,9 13,2 14,9 18,0 18,8 23 13 40 22 W 1017,7 62 0 0,0
23.06.2018 00:00:00 14,1 6,7 13,5 15,0 18,4 18,8 20 11 31 17 W 1017,8 63 0 0,0
22.06.2018 23:00:00 14,0 6,3 12,7 15,4 18,7 18,8 21 11 35 19 W 1017,5 65 0 0,0
22.06.2018 22:00:00 13,9 8,2 12,5 16,4 19,0 18,9 13 7 37 20 W 1017,4 63 0 0,0
22.06.2018 21:00:00 15,1 7,5 14,4 17,4 19,2 18,9 26 14 49 26 NW 1016,9 70 0 0,0
22.06.2018 20:00:00 16,8 6,7 15,7 18,6 19,4 18,9 15 8 31 17 W 1016,4 70 36 0,0
22.06.2018 19:00:00 18,0 7,4 17,8 19,7 19,4 18,9 11 6 28 15 W 1016,4 70 31 0,0
22.06.2018 18:00:00 16,9 9,0 18,8 20,6 19,3 18,9 6 3 15 8 SW 1016,6 70 6 0,5
22.06.2018 17:00:00 16,5 7,6 18,1 21,6 19,0 18,9 7 4 39 21 SW 1016,5 70 15 0,0
22.06.2018 16:00:00 16,9 7,2 20,0 22,2 18,6 19,0 29 15 39 21 NW 1016,3 40 20 0,0
22.06.2018 15:00:00 18,0 6,7 22,8 21,9 17,9 19,0 24 13 32 17 WNW 1015,8 38 35 0,0
22.06.2018 14:00:00 16,9 6,5 20,5 20,4 17,4 19,0 18 10 36 19 W 1015,8 21 52 0,0
22.06.2018 13:00:00 14,9 7,2 19,7 17,3 17,2 19,0 22 12 40 22 WSW 1015,8 20 22 0,0
22.06.2018 12:00:00 13,6 7,6 15,5 15,8 17,0 19,0 18 10 37 20 W 1015,6 30 1 0,0
22.06.2018 11:00:00 13,6 7,0 14,5 16,2 16,8 19,0 24 13 39 21 W 1015,3 30 17 0,0
22.06.2018 10:00:00 12,3 6,8 13,7 15,0 16,7 19,0 24 13 40 22 WSW 1014,9 30 11 0,0
22.06.2018 09:00:00 11,6 7,2 12,4 13,8 16,7 19,0 19 10 44 24 W 1014,9 40 4 0,0
22.06.2018 08:00:00 11,1 7,0 11,8 13,1 16,7 19,0 19 11 39 21 W 1014,6 40 2 0,0
22.06.2018 07:00:00 10,2 6,9 10,3 12,5 16,9 19,0 24 13 38 21 WSW 1014,6 40 0 0,0
22.06.2018 06:00:00 9,7 6,8 9,5 12,0 17,1 19,0 23 12 37 20 WSW 1014,6 40 0 0,0
22.06.2018 05:00:00 9,4 6,7 9,0 11,7 17,4 19,0 20 11 35 19 WSW 1014,7 59 0 0,0
22.06.2018 04:00:00 9,3 6,4 8,3 12,0 17,7 19,0 24 13 41 22 WSW 1014,7 64 0 0,0
22.06.2018 03:00:00 9,8 6,5 8,7 12,2 18,0 19,0 26 14 37 20 WSW 1014,7 70 0 0,0
22.06.2018 02:00:00 10,1 6,6 8,9 12,6 18,4 19,0 23 13 34 18 WSW 1014,9 70 0 0,0
22.06.2018 01:00:00 10,3 6,6 9,1 13,0 18,8 19,0 21 11 36 19 WSW 1015,0 70 0 0,0
22.06.2018 00:00:00 10,8 6,5 9,5 13,5 19,2 19,0 20 11 32 18 WSW 1015,1 70 0 0,0
21.06.2018 23:00:00 11,3 6,5 9,8 14,1 19,7 19,0 16 9 32 17 WSW 1014,9 70 0 0,0
21.06.2018 22:00:00 12,0 6,2 10,9 14,9 20,1 19,0 20 11 36 20 W 1014,6 70 0 0,0
21.06.2018 21:00:00 12,5 6,4 11,5 15,9 20,6 19,0 21 11 44 24 W 1014,0 70 19 0,0
21.06.2018 20:00:00 13,2 6,7 12,8 16,9 21,0 19,0 35 19 68 37 WNW 1013,5 67 15 0,0
21.06.2018 19:00:00 14,2 8,2 14,4 18,5 21,3 19,0 36 20 54 29 W 1012,3 40 40 0,0
21.06.2018 18:00:00 14,0 8,4 14,7 19,4 21,5 19,0 35 19 52 28 W 1011,8 16 45 0,0
21.06.2018 17:00:00 12,9 9,1 12,7 19,1 21,9 19,0 29 16 51 28 W 1011,7 52 0 0,4
21.06.2018 16:00:00 13,7 11,3 15,7 19,8 22,3 19,0 16 9 32 18 WSW 1010,5 55 1 1,1
21.06.2018 15:00:00 12,7 11,3 12,5 20,3 22,7 19,0 26 14 42 23 W 1011,0 5 0 0,3
21.06.2018 14:00:00 15,3 13,1 15,7 22,3 23,0 19,0 27 15 49 26 NW 1009,6 25 0 0,4
21.06.2018 13:00:00 15,7 14,4 15,8 25,5 22,8 19,0 38 20 71 39 NW 1008,0 20 14 4,9
21.06.2018 12:00:00 25,7 13,6 29,1 27,3 22,3 19,0 27 15 48 26 SSW 1006,4 25 50 0,0
21.06.2018 11:00:00 24,7 14,3 27,8 25,5 21,8 19,0 16 8 36 20 SW 1007,3 20 23 0,0
21.06.2018 10:00:00 24,0 13,9 27,7 24,0 21,5 18,9 17 9 31 17 SW 1008,6 20 29 0,0
21.06.2018 09:00:00 22,4 14,9 25,1 22,5 21,2 18,9 12 6 20 11 SSW 1009,8 20 52 0,0
21.06.2018 08:00:00 21,3 14,8 23,3 20,3 21,2 18,9 9 5 19 10 SW 1010,6 18 57 0,0
21.06.2018 07:00:00 19,5 14,5 18,6 19,2 21,4 18,9 13 7 20 11 WSW 1011,3 20 60 0,0
21.06.2018 06:00:00 18,0 13,8 16,1 18,9 21,7 18,9 8 4 14 8 SW 1011,8 20 2 0,0
21.06.2018 05:00:00 17,0 13,6 15,0 19,0 22,0 18,9 10 5 16 8 S 1012,1 16 0 0,0
21.06.2018 04:00:00 16,6 13,6 14,1 19,4 22,3 18,9 9 5 14 8 SSW 1013,0 18 0 0,0
21.06.2018 03:00:00 16,9 13,8 12,8 20,0 22,6 18,9 8 4 10 6 S 1013,7 20 0 0,0
21.06.2018 02:00:00 17,5 14,2 13,3 20,6 23,0 18,9 7 4 9 5 S 1014,4 20 0 0,0
21.06.2018 01:00:00 18,0 14,4 14,1 21,4 23,4 18,9 4 2 8 4 SW 1014,9 24 0 0,0
21.06.2018 00:00:00 17,7 14,5 16,2 22,1 23,7 18,9 6 3 7 4 W 1015,4 20 0 0,0
20.06.2018 23:00:00 18,8 17,0 15,6 23,0 24,1 18,9 6 3 8 4 WSW 1015,7 13 0 0,0
20.06.2018 22:00:00 21,9 15,2 17,6 24,2 24,4 18,9 6 3 11 6 SW 1015,9 32 0 0,0
20.06.2018 21:00:00 24,3 15,1 22,4 25,6 24,6 18,9 6 3 18 10 SSW 1015,9 36 33 0,0
20.06.2018 20:00:00 25,4 14,2 25,3 27,0 24,6 18,9 7 4 18 10 SW 1016,4 42 43 0,0
20.06.2018 19:00:00 26,0 14,7 27,1 27,9 24,5 18,9 8 5 22 12 SW 1016,9 38 22 0,0
20.06.2018 18:00:00 25,4 14,9 27,7 28,8 24,4 18,9 11 6 24 13 SW 1017,7 30 33 0,0
20.06.2018 17:00:00 26,2 14,7 30,8 28,9 24,1 18,9 13 7 29 16 SW 1018,5 38 16 0,0
20.06.2018 16:00:00 25,2 14,0 28,8 28,8 23,8 18,9 14 8 28 15 SW 1019,3 50 1 0,0
20.06.2018 15:00:00 24,8 13,5 28,6 29,1 23,3 18,9 18 10 29 15 WSW 1020,0 33 13 0,0
20.06.2018 14:00:00 24,7 13,7 30,1 28,2 22,8 18,9 12 7 29 16 SW 1020,5 55 0 0,0
20.06.2018 13:00:00 23,7 13,9 29,3 28,0 22,3 18,9 12 7 26 14 SSW 1021,5 40 16 0,0
20.06.2018 12:00:00 22,7 13,7 28,6 26,5 21,8 18,9 16 9 25 13 S 1022,3 40 10 0,0
20.06.2018 11:00:00 21,7 13,6 26,2 24,9 21,3 18,9 13 7 22 12 SSW 1022,6 40 0 0,0
20.06.2018 10:00:00 21,0 12,9 25,1 23,7 20,9 18,9 10 5 18 10 SSW 1023,0 40 24 0,0
20.06.2018 09:00:00 20,2 11,7 24,7 21,6 20,7 18,9 8 5 16 9 SW 1023,1 20 60 0,0
20.06.2018 08:00:00 18,2 10,0 20,8 19,2 20,7 18,8 11 6 18 10 W 1023,3 20 56 0,0
20.06.2018 07:00:00 16,9 10,7 16,2 18,2 21,0 18,8 11 6 16 9 W 1023,3 30 60 0,0
20.06.2018 06:00:00 15,7 11,3 14,0 18,0 21,2 18,8 8 4 11 6 WSW 1023,2 70 2 0,0
20.06.2018 05:00:00 14,8 11,4 11,7 18,3 21,5 18,8 7 4 13 7 WSW 1023,1 57 0 0,0
20.06.2018 04:00:00 15,5 12,2 12,9 18,8 21,9 18,8 9 5 12 7 WSW 1022,9 53 0 0,0
20.06.2018 03:00:00 15,4 12,5 12,9 19,4 22,2 18,8 8 4 15 8 W 1022,9 47 0 0,0
20.06.2018 02:00:00 15,9 13,6 13,2 20,1 22,5 18,8 6 3 16 9 WNW 1022,9 27 0 0,0
20.06.2018 01:00:00 16,9 14,0 15,8 20,7 22,9 18,8 11 6 18 10 W 1022,7 31 0 0,0
20.06.2018 00:00:00 17,9 14,0 16,5 21,4 23,2 18,8 13 7 16 9 W 1022,4 37 0 0,0
19.06.2018 23:00:00 18,7 14,0 16,7 22,2 23,6 18,8 10 5 16 9 WSW 1021,9 49 0 0,0
19.06.2018 22:00:00 19,5 13,9 17,7 23,3 23,8 18,8 10 6 17 9 WSW 1021,5 37 0 0,0
19.06.2018 21:00:00 21,4 13,9 20,4 24,6 24,0 18,8 10 5 29 15 WSW 1020,9 56 37 0,0
19.06.2018 20:00:00 23,3 12,9 24,1 26,0 24,1 18,8 18 10 29 15 W 1020,9 42 58 0,0
19.06.2018 19:00:00 23,8 13,0 26,1 26,8 24,0 18,8 19 11 32 17 W 1020,7 28 56 0,0
19.06.2018 18:00:00 23,7 13,6 26,8 26,9 23,9 18,8 21 11 35 19 W 1020,7 21 41 0,0
19.06.2018 17:00:00 22,9 13,9 25,2 26,4 23,9 18,8 20 11 35 19 WNW 1021,0 32 0 0,0
19.06.2018 16:00:00 23,2 13,6 25,2 27,6 23,7 18,8 22 12 33 18 W 1020,7 34 1 0,0
19.06.2018 15:00:00 23,7 13,3 27,4 28,4 23,3 18,8 23 12 34 18 W 1020,2 27 26 0,0
19.06.2018 14:00:00 23,4 13,0 28,0 27,2 23,0 18,8 26 14 33 18 W 1020,2 23 20 0,0
19.06.2018 13:00:00 21,9 12,1 24,9 27,2 22,6 18,8 26 14 38 20 WSW 1020,5 30 5 0,0
19.06.2018 12:00:00 22,5 11,7 27,5 26,8 22,1 18,8 23 12 32 18 W 1020,1 30 8 0,0
19.06.2018 11:00:00 21,3 11,4 26,3 25,7 21,7 18,7 23 12 33 18 WSW 1020,3 25 58 0,0
19.06.2018 10:00:00 21,0 12,5 25,9 23,5 21,4 18,7 17 9 35 19 W 1020,0 25 56 0,0
19.06.2018 09:00:00 19,3 13,1 21,6 21,6 21,3 18,7 21 11 33 18 WSW 1019,7 25 38 0,0
19.06.2018 08:00:00 18,5 14,4 20,7 20,2 21,3 18,7 19 10 29 16 WSW 1019,6 18 4 0,0
19.06.2018 07:00:00 17,5 14,5 17,8 19,7 21,5 18,7 9 5 37 20 SW 1019,2 18 0 0,0
19.06.2018 06:00:00 17,8 14,2 17,7 19,5 21,6 18,7 10 5 22 12 WSW 1019,0 20 0 0,0
19.06.2018 05:00:00 17,5 13,8 16,2 19,9 21,8 18,7 13 7 23 12 WSW 1018,7 34 0 0,0
19.06.2018 04:00:00 18,7 13,7 18,1 20,3 22,0 18,7 16 8 32 17 WSW 1018,5 40 0 0,0
19.06.2018 03:00:00 19,0 13,3 18,4 20,4 22,3 18,7 14 8 26 14 WSW 1018,6 50 0 0,0
19.06.2018 02:00:00 18,4 12,7 17,5 20,4 22,5 18,7 7 4 16 9 SW 1018,7 50 0 0,0
19.06.2018 01:00:00 17,9 12,5 16,4 20,9 22,9 18,7 11 6 17 9 SSW 1018,7 54 0 0,0
19.06.2018 00:00:00 18,4 12,6 16,2 21,6 23,2 18,7 8 4 15 8 SSW 1019,1 48 0 0,0
18.06.2018 23:00:00 20,2 12,3 18,7 22,5 23,4 18,7 9 5 15 8 SW 1019,1 57 0 0,0
18.06.2018 22:00:00 20,5 11,7 19,6 23,3 23,7 18,7 8 5 13 7 SW 1018,9 49 0 0,0
18.06.2018 21:00:00 21,4 11,0 21,2 24,1 23,9 18,6 7 4 15 8 SW 1018,4 70 0 0,0
18.06.2018 20:00:00 21,8 10,2 22,3 25,0 24,0 18,6 8 4 16 9 SW 1018,4 70 0 0,0
18.06.2018 19:00:00 22,0 10,1 22,7 25,8 24,1 18,6 11 6 24 13 WSW 1018,7 70 0 0,0
18.06.2018 18:00:00 22,7 9,5 24,6 26,8 24,1 18,6 13 7 32 18 WSW 1018,7 56 2 0,0
18.06.2018 17:00:00 22,9 9,2 26,2 27,4 24,0 18,6 17 9 30 16 WSW 1018,7 33 23 0,0
18.06.2018 16:00:00 22,7 9,7 26,3 27,7 23,8 18,6 11 6 28 15 SW 1019,0 54 11 0,0

tt = temperature
td = dewpoint
tt 5cm = temperature 5cm
tt -5cm = temperature -5cm
tt -20cm = temperature -20cm
tt -100cm = temperature -100cm
ff = wind speed
fx = gusts
dd = wind direction
ppp = reduced air pressure
vv = visibility
sd = sunshine duration
rr = precipitation

Next stations